Regional Weather Roundup
Issued by NWS Sioux Falls, SD

Home | Current Version | Previous Version | Graphics & Text | Print | Product List | Glossary On
Versions: 1 2 3 4 5 6 7 8 9 10 11 12 13 14 15 16 17 18 19 20 21 22 23 24 25 26 27 28 29 30 31 32 33 34 35 36 37 38 39 40 41 42 43 44 45 46 47 48 49 50
273
ASUS43 KFSD 240502
RWRFSD

WEATHER ROUNDUP FOR SE SOUTH DAKOTA/SW MINNESOTA/NW IOWA
NATIONAL WEATHER SERVICE SIOUX FALLS SD
1200 AM CDT MON APR 24 2017

NOTE: "FAIR" INDICATES FEW OR NO CLOUDS BELOW 12,000 FEET WITH NO
SIGNIFICANT WEATHER AND OR OBSTRUCTIONS TO VISIBILITY.


SDZ038>040-050-052>070-240600-
SOUTHEAST SOUTH DAKOTA

CITY           SKY/WX    TMP DP  RH WIND       PRES   REMARKS
BROOKINGS      CLOUDY    56  32  40 S16       29.74F
CHAMBERLAIN    CLOUDY    63  32  31 SE18G28   29.62F
HURON          CLOUDY    57  33  40 SE12      29.65F
MADISON        FAIR      55  32  41 S18       29.74F
MITCHELL       CLOUDY    58  33  39 S17       29.69F
SIOUX FALLS    MOCLDY    58  33  39 S17       29.77F
WINNER         FAIR      62  31  31 S26G36    29.61F
YANKTON        CLOUDY    57  28  33 S15       29.76F
$$

MNZ071-072-080-081-089-090-097-098-240600-
SOUTHWEST MINNESOTA

CITY           SKY/WX    TMP DP  RH WIND       PRES   REMARKS
FAIRMONT       PTCLDY    52  34  50 S13       29.87F
JACKSON        CLOUDY    54  32  43 S12       29.86F
MARSHALL       CLOUDY    58  31  35 S16       29.76F
MONTEVIDEO     CLOUDY    52  37  58 SE9       29.77S
PIPESTONE      CLOUDY    54  27  35 S14       29.79F
REDWOOD FALLS  CLOUDY    55  32  41 S12       29.80F
TRACY          CLOUDY    58  33  38 S12G20    29.79F
WINDOM         CLOUDY    57  30  35 S13       29.83F
WORTHINGTON    CLOUDY    55  31  39 S14       29.84F
$$

IAZ001>003-012>014-020>022-031-032-NEZ013-014-SDZ071-240600-
NORTHWEST IOWA

CITY           SKY/WX    TMP DP  RH WIND       PRES   REMARKS
CHEROKEE       CLOUDY    48  35  60 S6        29.87S
DENISON        CLOUDY    55  32  41 S14       29.89F
ESTHERVILLE    CLOUDY    50  33  52 S13       29.87F
LE MARS        CLOUDY    55  32  41 S12       29.85S
ORANGE CITY    MOCLDY    54  34  47 S10       29.84F
SHELDON        PTCLDY    52  32  46 S14       29.83S
SIOUX CITY     PTCLDY    58  30  34 S17       29.85F
SPENCER        CLOUDY    51  34  52 MISG      29.87S
STORM LAKE     CLOUDY    48  32  53 S8        29.88F
$$

ABBREVIATIONS USED IN REMARKS
   TC - TEMPERATURE IN CELSIUS
  WCI - WIND CHILL INDEX
   HX - HEAT INDEX
  VSB - VISIBILITY





USA.gov is the U.S. government's official web portal to all federal, state and local government web resources and services.